DAL1997 TJSJ-KJFK

Flight info

Callsign DAL1997
Flight time N/A
Altitude FL320
Route ACONY3 PALDE DONQU LUCTI L454 OKONU YAALE Y495 CAMRN
Aircraft B703/H-S/N

Departure

Time 2026-04-29 03:28
Airport Luis Munoz Marin International Airport (TJSJ)

Arrival

Time N/A
Airport John F. Kennedy International Airport (KJFK)
Time Latitude Longitude Altitude Speed Heading
2026-04-29 03:14 18.43539 -66.00428 17 ft 0 kts
2026-04-29 03:18 18.43537 -66.00428 17 ft 1 kts
2026-04-29 03:18 18.43526 -66.00428 17 ft 2 kts
2026-04-29 03:18 18.43514 -66.00428 17 ft 3 kts
2026-04-29 03:18 18.43498 -66.00428 17 ft 2 kts
2026-04-29 03:19 18.43491 -66.00428 17 ft 2 kts
2026-04-29 03:19 18.43476 -66.00433 17 ft 3 kts 53°
2026-04-29 03:19 18.43472 -66.00442 17 ft 0 kts 92°
2026-04-29 03:20 18.43472 -66.00438 17 ft 3 kts 93°
2026-04-29 03:20 18.43465 -66.00372 17 ft 16 kts 96°
2026-04-29 03:20 18.43463 -66.00228 17 ft 24 kts 90°
2026-04-29 03:21 18.43468 -66.00032 17 ft 25 kts 70°
2026-04-29 03:21 18.43558 -66.00011 17 ft 14 kts 27°
2026-04-29 03:21 18.43671 -65.99966 17 ft 19 kts 334°
2026-04-29 03:21 18.43809 -66.00033 17 ft 25 kts 340°
2026-04-29 03:22 18.43983 -66.00101 17 ft 29 kts 334°
2026-04-29 03:22 18.44162 -66.00189 17 ft 29 kts 345°
2026-04-29 03:22 18.44282 -66.00203 17 ft 13 kts 52°
2026-04-29 03:22 18.44320 -66.00089 17 ft 20 kts 74°
2026-04-29 03:23 18.44368 -65.99977 17 ft 22 kts 58°
2026-04-29 03:23 18.44431 -65.99832 17 ft 26 kts 68°
2026-04-29 03:23 18.44482 -65.99694 17 ft 29 kts 69°
2026-04-29 03:23 18.44560 -65.99511 17 ft 30 kts 70°
2026-04-29 03:24 18.44672 -65.99397 17 ft 11 kts 351°
2026-04-29 03:24 18.44735 -65.99346 17 ft 14 kts 56°
2026-04-29 03:24 18.44791 -65.99242 17 ft 19 kts 72°
2026-04-29 03:24 18.44851 -65.99086 17 ft 27 kts 64°
2026-04-29 03:25 18.44889 -65.98917 17 ft 19 kts 90°
2026-04-29 03:25 18.44928 -65.98854 17 ft 10 kts 321°
2026-04-29 03:25 18.44930 -65.98886 17 ft 0 kts 243°
2026-04-29 03:26 18.44929 -65.98886 17 ft 0 kts 243°
2026-04-29 03:26 18.44929 -65.98887 17 ft 0 kts 243°
2026-04-29 03:26 18.44927 -65.98892 17 ft 6 kts 243°
2026-04-29 03:27 18.44851 -65.99071 17 ft 53 kts 248°
2026-04-29 03:27 18.44626 -65.99632 17 ft 113 kts 248°
2026-04-29 03:27 18.44238 -66.00554 20 ft 162 kts 246°
2026-04-29 03:27 18.43730 -66.01740 133 ft 195 kts 245°
2026-04-29 03:28 18.43141 -66.03140 287 ft 219 kts 246°
2026-04-29 03:28 18.42533 -66.04645 646 ft 227 kts 247°
2026-04-29 03:28 18.42099 -66.06245 1036 ft 230 kts 266°
2026-04-29 03:28 18.42455 -66.07886 1517 ft 246 kts 296°
2026-04-29 03:29 18.43467 -66.09476 2075 ft 280 kts 313°
2026-04-29 03:29 18.44944 -66.10529 2554 ft 262 kts 338°
2026-04-29 03:29 18.46645 -66.10758 3049 ft 236 kts
2026-04-29 03:29 18.48083 -66.10108 3557 ft 222 kts 39°
2026-04-29 03:30 18.48939 -66.08802 4089 ft 224 kts 71°
2026-04-29 03:30 18.49044 -66.07103 4675 ft 247 kts 97°
2026-04-29 03:30 18.48912 -66.05204 5229 ft 275 kts 85°
2026-04-29 03:30 18.49506 -66.03354 5760 ft 274 kts 58°
2026-04-29 03:31 18.52721 -66.01182 6842 ft 295 kts
2026-04-29 03:31 18.54767 -66.01329 7361 ft 296 kts 344°
2026-04-29 03:31 18.56448 -66.02242 7797 ft 288 kts 321°
2026-04-29 03:32 18.57695 -66.03830 8283 ft 279 kts 301°
2026-04-29 03:32 18.58460 -66.05417 8702 ft 271 kts 294°
2026-04-29 03:32 18.59141 -66.07116 9142 ft 263 kts 292°
2026-04-29 03:32 18.59805 -66.08871 9605 ft 254 kts 291°
2026-04-29 03:33 18.60373 -66.10366 10009 ft 247 kts 292°
2026-04-29 03:33 18.60991 -66.11953 10375 ft 254 kts 292°
2026-04-29 03:33 18.61361 -66.12883 10582 ft 255 kts 293°
2026-04-29 03:33 18.62087 -66.14634 10977 ft 271 kts 295°
2026-04-29 03:34 18.62643 -66.15803 11233 ft 285 kts 298°
2026-04-29 03:36 18.62885 -66.16262 11332 ft 289 kts 300°
2026-04-29 03:36 18.63169 -66.16770 11440 ft 293 kts 301°
2026-04-29 03:36 18.63362 -66.17099 11509 ft 294 kts 302°
2026-04-29 03:36 18.64513 -66.18857 11884 ft 290 kts 307°
2026-04-29 03:37 18.65299 -66.19922 12126 ft 289 kts 309°
2026-04-29 03:38 18.65399 -66.20053 12157 ft 289 kts 309°
2026-04-29 03:40 18.65745 -66.20494 12259 ft 283 kts 310°
2026-04-29 03:40 18.66859 -66.21847 12586 ft 285 kts 312°
2026-04-29 03:40 18.68196 -66.23369 12972 ft 301 kts 313°
2026-04-29 03:40 18.69594 -66.24883 13339 ft 318 kts 315°
2026-04-29 03:41 18.71204 -66.26562 13726 ft 335 kts 316°
2026-04-29 03:41 18.72912 -66.28299 14109 ft 346 kts 316°
2026-04-29 03:41 18.73166 -66.28554 14163 ft 346 kts 316°
2026-04-29 03:42 18.74168 -66.29557 14382 ft 348 kts 316°
2026-04-29 03:42 18.75918 -66.31293 14759 ft 345 kts 317°
2026-04-29 03:42 18.77654 -66.33002 15130 ft 340 kts 317°
2026-04-29 03:43 18.79260 -66.34575 15476 ft 335 kts 317°
2026-04-29 03:43 18.80947 -66.36224 15846 ft 329 kts 317°
2026-04-29 03:43 18.82605 -66.37844 16215 ft 323 kts 317°
2026-04-29 03:43 18.83692 -66.38906 16461 ft 318 kts 317°
2026-04-29 03:44 18.85823 -66.40986 16953 ft 309 kts 317°
2026-04-29 03:44 18.87375 -66.42503 17307 ft 303 kts 317°
2026-04-29 03:44 18.88903 -66.43998 17674 ft 296 kts 317°
2026-04-29 03:44 18.90392 -66.45456 18066 ft 289 kts 316°
2026-04-29 03:45 18.91839 -66.46886 18416 ft 282 kts 317°
2026-04-29 03:45 18.93180 -66.48219 18813 ft 273 kts 315°
2026-04-29 03:45 18.94563 -66.49604 19194 ft 278 kts 315°
2026-04-29 03:45 18.95980 -66.51031 19582 ft 287 kts 314°
2026-04-29 03:46 18.97445 -66.52512 19973 ft 297 kts 314°
2026-04-29 03:46 18.98952 -66.54041 20359 ft 306 kts 314°
2026-04-29 03:46 19.00503 -66.55613 20741 ft 314 kts 314°
2026-04-29 03:46 19.01987 -66.57119 21096 ft 322 kts 313°
2026-04-29 03:47 19.03616 -66.58772 21480 ft 329 kts 313°
2026-04-29 03:47 19.05287 -66.60454 21860 ft 337 kts 314°
2026-04-29 03:47 19.07031 -66.62139 22240 ft 344 kts 315°
2026-04-29 03:47 19.08828 -66.63828 22619 ft 350 kts 315°
2026-04-29 03:48 19.10667 -66.65529 22997 ft 355 kts 316°
2026-04-29 03:48 19.12526 -66.67214 23370 ft 351 kts 318°
2026-04-29 03:48 19.14265 -66.68758 23719 ft 347 kts 318°
2026-04-29 03:48 19.16098 -66.70373 24090 ft 342 kts 318°
2026-04-29 03:49 19.17909 -66.71969 24461 ft 337 kts 318°
2026-04-29 03:49 19.19690 -66.73544 24833 ft 332 kts 318°
2026-04-29 03:49 19.21057 -66.74765 25125 ft 333 kts 316°
2026-04-29 03:49 19.22706 -66.76265 25482 ft 336 kts 315°
2026-04-29 03:50 19.24472 -66.77892 25860 ft 338 kts 315°
2026-04-29 03:50 19.26162 -66.79453 26219 ft 340 kts 315°
2026-04-29 03:50 19.27946 -66.81100 26595 ft 342 kts 315°
2026-04-29 03:50 19.29733 -66.82745 26970 ft 344 kts 315°
2026-04-29 03:51 19.31538 -66.84403 27346 ft 345 kts 315°
2026-04-29 03:51 19.33346 -66.86059 27721 ft 346 kts 316°
2026-04-29 03:51 19.35060 -66.87627 28075 ft 346 kts 316°
2026-04-29 03:51 19.36880 -66.89289 28450 ft 347 kts 316°
2026-04-29 03:52 19.38595 -66.90853 28802 ft 347 kts 316°
2026-04-29 03:52 19.40416 -66.92512 29176 ft 346 kts 316°
2026-04-29 03:52 19.42236 -66.94170 29551 ft 346 kts 316°
2026-04-29 03:52 19.44050 -66.95822 29924 ft 345 kts 316°
2026-04-29 03:53 19.45861 -66.97469 30298 ft 344 kts 316°
2026-04-29 03:53 19.47666 -66.99112 30671 ft 342 kts 316°
2026-04-29 03:53 19.49459 -67.00745 31044 ft 340 kts 316°
2026-04-29 03:53 19.51245 -67.02370 31417 ft 338 kts 317°
2026-04-29 03:54 19.53021 -67.03983 31790 ft 336 kts 315°
2026-04-29 03:54 19.54789 -67.05582 32140 ft 334 kts 312°
2026-04-29 03:54 19.56540 -67.07170 32519 ft 330 kts 311°
2026-04-29 03:54 19.58268 -67.08741 32896 ft 327 kts 311°
2026-04-29 03:55 19.61744 -67.11920 33212 ft 334 kts 312°
2026-04-29 03:55 19.65314 -67.15195 33227 ft 349 kts 312°
2026-04-29 03:56 19.67176 -67.16908 32901 ft 366 kts 312°
2026-04-29 03:56 19.68862 -67.18462 32841 ft 374 kts 313°
2026-04-29 03:56 19.72873 -67.22144 32726 ft 391 kts 313°
2026-04-29 03:57 19.74956 -67.24053 32601 ft 402 kts 313°
2026-04-29 03:57 19.77089 -67.26006 32474 ft 411 kts 313°
2026-04-29 03:57 19.79273 -67.28006 32349 ft 420 kts 313°
2026-04-29 03:57 19.81503 -67.30047 32222 ft 429 kts 313°
2026-04-29 03:58 19.83773 -67.32124 32093 ft 437 kts 314°
2026-04-29 03:58 19.86082 -67.34235 32103 ft 441 kts 314°
2026-04-29 03:58 19.90757 -67.38504 32166 ft 448 kts 313°
2026-04-29 03:59 19.95508 -67.42847 32175 ft 456 kts 314°
2026-04-29 03:59 20.00328 -67.47259 32177 ft 461 kts 314°
2026-04-29 04:00 20.05204 -67.51730 32146 ft 469 kts 317°
2026-04-29 04:00 20.10092 -67.56228 32138 ft 475 kts 319°
2026-04-29 04:01 20.15106 -67.60830 32105 ft 478 kts 320°
2026-04-29 04:01 20.20120 -67.65434 32103 ft 475 kts 320°
2026-04-29 04:02 20.24904 -67.69821 32101 ft 466 kts 316°
2026-04-29 04:02 20.29755 -67.74267 32098 ft 458 kts 314°
2026-04-29 04:03 20.34550 -67.78676 32100 ft 456 kts 313°
2026-04-29 04:03 20.39323 -67.83083 32099 ft 453 kts 313°
2026-04-29 04:04 20.44037 -67.87441 32099 ft 447 kts 313°
2026-04-29 04:04 20.48697 -67.91756 32099 ft 443 kts 313°
2026-04-29 04:05 20.53231 -67.95959 32100 ft 440 kts 313°
2026-04-29 04:05 20.57820 -68.00218 32100 ft 437 kts 312°
2026-04-29 04:06 20.62251 -68.04361 32098 ft 441 kts 319°
2026-04-29 04:06 20.66908 -68.08690 32104 ft 449 kts 320°
2026-04-29 04:07 20.72094 -68.12339 32107 ft 451 kts 335°
2026-04-29 04:07 20.78040 -68.14426 32101 ft 452 kts 341°
2026-04-29 04:08 20.84172 -68.15901 32098 ft 455 kts 341°
2026-04-29 04:08 20.90400 -68.17206 32097 ft 460 kts 341°
2026-04-29 04:09 20.96713 -68.18496 32101 ft 466 kts 341°
2026-04-29 04:09 21.03098 -68.19812 32101 ft 471 kts 341°
2026-04-29 04:10 21.09529 -68.21158 32101 ft 475 kts 341°
2026-04-29 04:10 21.16016 -68.22533 32100 ft 477 kts 341°
2026-04-29 04:11 21.22515 -68.23926 32100 ft 480 kts 341°
2026-04-29 04:11 21.29051 -68.25339 32100 ft 481 kts 341°
2026-04-29 04:12 21.35621 -68.26767 32100 ft 483 kts 341°
2026-04-29 04:12 21.42064 -68.28175 32100 ft 484 kts 341°
2026-04-29 04:13 21.48662 -68.29623 32100 ft 486 kts 341°
2026-04-29 04:13 21.55275 -68.31079 32100 ft 487 kts 341°
2026-04-29 04:14 21.61891 -68.32538 32100 ft 487 kts 341°
2026-04-29 04:14 21.68520 -68.34003 32100 ft 488 kts 341°
2026-04-29 04:15 21.75153 -68.35471 32100 ft 488 kts 341°
2026-04-29 04:15 21.81789 -68.36943 32100 ft 488 kts 341°
2026-04-29 04:16 21.88417 -68.38414 32100 ft 487 kts 341°
2026-04-29 04:16 21.95039 -68.39885 32100 ft 487 kts 341°
2026-04-29 04:17 22.01651 -68.41355 32100 ft 487 kts 341°
2026-04-29 04:17 22.08093 -68.42790 32100 ft 486 kts 341°
2026-04-29 04:18 22.14566 -68.44234 32101 ft 486 kts 341°
2026-04-29 04:18 22.21178 -68.45710 32082 ft 486 kts 341°
2026-04-29 04:19 22.27778 -68.47184 32098 ft 486 kts 341°
2026-04-29 04:19 22.34376 -68.48662 32100 ft 486 kts 341°
2026-04-29 04:20 22.40972 -68.50140 32100 ft 485 kts 341°
2026-04-29 04:20 22.47568 -68.51619 32100 ft 485 kts 341°
2026-04-29 04:21 22.54164 -68.53099 32100 ft 485 kts 341°
2026-04-29 04:21 22.60756 -68.54583 32100 ft 485 kts 348°
2026-04-29 04:22 22.67349 -68.56085 32100 ft 486 kts 348°
2026-04-29 04:22 22.73952 -68.57550 32100 ft 486 kts 342°
2026-04-29 04:23 22.80547 -68.59025 32100 ft 485 kts 342°
2026-04-29 04:23 22.87140 -68.60514 32100 ft 485 kts 343°
2026-04-29 04:24 22.93722 -68.62001 32100 ft 485 kts 343°
2026-04-29 04:24 23.00305 -68.63490 32100 ft 485 kts 343°
2026-04-29 04:25 23.06885 -68.64979 32100 ft 484 kts 343°
2026-04-29 04:25 23.12039 -68.66146 32100 ft 484 kts 343°